P/2006 Y2 (Gibbs)

Epoch 2006 Dec. 11.0 TT = JDT 2454080.5  

T 2006 Dec. 28.75276 TT                                 Nakano

q   1.2512149            (2000.0)            P               Q

n   0.18696982     Peri.   26.30112     -0.74925017     -0.62128271

a   3.0289240      Node   113.35349     +0.55504170     -0.77803014

e   0.5869111      Incl.   14.47090     +0.36132104     -0.09314985

P   5.27 (+/- 0.09 day)

From 105 observations 2006 Nov. 10-2007 Mar. 2, mean residual 0".64.

Residuals in seconds of arc 

2006/                     061227 703  0.2-  0.0     070108 J95  0.1-  0.3-  

061110 291  0.5+  0.2-    061227 703  0.6+  0.5-    070108 J95  0.5-  0.2-  

061110 291  0.0   0.4-    061227 703  0.5-  0.0     070113 349  0.9-  0.5+  

061110 291  0.4-  0.4-    061227 703  0.8-  0.1+    070113 349  0.6-  0.8+  

061226 703  1.1-  0.5+    061227 703  0.0   0.3-    070114 J95  0.6+  0.2+  

061226 703  0.1-  1.7-    061227 H36  0.5+  0.3-    070114 J95  0.0   0.0   

061226 703 (2.5-  0.6+)   061227 H36  1.1-  0.5-    070114 J95  0.4+  0.1-  

061226 703  1.6-  1.6+    061227 H36  0.4-  1.2+    070116 703  0.3+  1.2-  

061226 703  0.5+  0.7-    061227 H36  0.1-  0.4+    070116 703  0.8+  1.5-  

061226 703  0.5+  0.7-    061228 246  0.0   0.7+    070116 703 (2.1+  0.0 ) 

061226 703  1.3+  0.3-    061228 246  0.5+  1.1+    070116 703 (3.5-  0.2+) 

061226 703  0.3-  0.0     061228 246  0.2-  1.0+    070129 703  1.7-  0.1+  

061226 703  1.0-  0.3+    061228 246  0.4-  0.8+    070129 703  0.4-  1.7+  

061227 246  0.2-  0.2+    061228 246  0.1-  0.1-    070129 703  0.3-  0.7-  

061227 246  1.0+  0.2-    061228 246  0.1-  1.6-    070129 703 (2.0-  0.3+) 

061227 246  0.7-  0.2+    061228 246  0.6+  1.1-    070204 J95  0.2+  0.0   

061227 246  0.8-  0.5-    061228 246  1.2+  0.3+    070204 J95  0.3+  0.0   

061227 246  0.2-  0.3+    061228 246  1.7+  0.5-    070204 J95  0.1+  0.0   

061227 246  0.1+  1.1+    061230 246  0.4-  0.5+    070205 118  0.6+  0.2-  

061227 246  1.3+  0.2-    061230 246  0.8-  0.8+    070205 118  0.1+  1.2-  

061227 473  0.0   0.2+    061230 246 (1.7-  2.1+)   070207 J95  0.5-  0.1+  

061227 473  0.0   0.3+    061230 246  0.2+  0.3+    070207 J95  0.4-  0.4-  

061227 473  0.2-  0.3+    061230 246  0.3-  1.3+    070207 J95  0.3+  0.1+  

061227 461  0.3+  0.3-    061230 246  0.5+  1.0+    070221 704  0.8+  0.2+  

061227 118  0.0   0.1-    061230 246  0.3+  0.7+    070221 704  0.8+  0.6+  

061227 118  0.2-  0.0     061230 246  1.0-  0.4+    070221 704  0.4+  0.3+  

061227 461  0.2+  0.1-    061230 213  1.7+  0.1+    070221 704  0.4+  0.1+  

061227 461  0.2-  0.2-    061230 213 (2.0+  0.1-)   070221 703  0.5-  0.4-  

061227 461  0.2+  0.3-    061230 213 (2.5+  0.0 )   070221 703  1.1-  0.6-  

061227 118  0.3-  0.0     061230 372  1.3+  0.1+    070221 704  0.5+  0.0   

061227 854  0.0   0.2-    061231 673  0.5+  0.3-    070221 703  0.2+  0.7+  

061227 854  0.1+  0.9+    061231 673  0.5+  0.2-    070221 703  1.4-  0.2-  

061227 854  1.0-  0.4+    061231 673  0.6+  0.3-    070228 850  0.1+  0.2-  

061227 703  0.9-  1.0-    061231 673  0.4+  0.1-    070228 850  0.4-  0.3+  

061227 703 (2.0-  0.2+)   061231 349  0.1-  0.6+    070228 850  0.6+  0.1-  

061227 703  0.6+  0.9-    061231 349  0.1+  1.0+    070302 J95  0.8-  0.1-  

061227 703  0.6-  0.6-    2007/                     070302 J95  0.6+  0.3-  

061227 703  0.8-  0.9-    070108 J95  0.4+  0.7-                            

061227 703  0.5-  0.4-    070108 J95  0.4+  0.1-                            

NAKANO

         **** Don't distribute anyone except personal use only ****

                (C) Copyright 2007 OAA/ComputingSection

write mail from CFAD0::NAKANO on 2007-03-05 06:21:26(JST).

 

    C/2006 Y2 (Gibbs)

T 2006 Dec. 30.70284 TT                                 Nakano

q   1.3593445            (2000.0)            P               Q

                   Peri.   27.65148     -0.82260896     -0.51428762

                   Node   119.33923     +0.45669770     -0.85169178

e   1.0            Incl.   16.15401     +0.33873546     -0.10064470

From 52 observations 2006 Dec. 26-31.



NAKANO

         **** Don't distribute anyone except personal use only ****

                (C) Copyright 2007 OAA/ComputingSection

write mail from CFAD0::NAKANO on 2007-01-11 23:59:04(JST).

 



◎C/2006 Y2の軌道と予報位置です



 上尾の門田健一氏から12月31日に観測が報告されました.氏のCCD全光度は

18.4等でした.



    C/2006 Y2 (Gibbs)

T 2006 Dec. 30.70284 TT                                 Nakano

q   1.3593445            (2000.0)            P               Q

                   Peri.   27.65148     -0.82260896     -0.51428762

                   Node   119.33923     +0.45669770     -0.85169178

e   1.0            Incl.   16.15401     +0.33873546     -0.10064470

From 52 observations 2006 Dec. 26-31.

 

Date/        TT  R.A.(2000) Decl.     Delta   r     Daily motion  Mag.  Moon Age

              h    h  m       。  ,                      ,  / PA 。  m1      。

2007 Jan.  1 19  13 10.28  +04 06.4   1.004  1.360    55.4 /  93  18.3  115  .96

           2 19  13 13.98  +04 03.9   1.002  1.360    55.0 /  92  18.3  102  .99

           3 19  13 17.65  +04 01.6   1.000  1.361    54.6 /  92  18.3   90 1.00

           4 19  13 21.29  +03 59.5   0.999  1.361    54.1 /  92  18.3   78  .98

           5 19  13 24.91  +03 57.6   0.997  1.362    53.7 /  92  18.3   66  .95

           6 19  13 28.49  +03 55.8   0.996  1.363    53.2 /  92  18.3   55  .89

           7 19  13 32.05  +03 54.3   0.994  1.365    52.7 /  91  18.3   45  .83

           8 19  13 35.57  +03 52.9   0.993  1.366    52.2 /  91  18.3   34  .75

           9 19  13 39.06  +03 51.7   0.992  1.367    51.7 /  91  18.3   25  .66

          10 19  13 42.51  +03 50.8   0.991  1.369    51.2 /  91  18.3   19  .57

          11 19  13 45.93  +03 50.0   0.990  1.371    50.7 /  91  18.3   17  .48

          12 19  13 49.32  +03 49.5   0.989  1.373    50.1 /  90  18.4   21  .38

          13 19  13 52.66  +03 49.1   0.989  1.375    49.5 /  90  18.4   30  .29

          14 19  13 55.97  +03 48.9   0.988  1.377    49.0 /  90  18.4   40  .21

          15 19  13 59.25  +03 49.0   0.988  1.380    48.4 /  90  18.4   50  .13

          16 19  14 02.48  +03 49.2   0.987  1.382    47.8 /  89  18.4   62  .07

          17 19  14 05.67  +03 49.7   0.987  1.385    47.2 /  89  18.4   74  .03

          18 19  14 08.82  +03 50.3   0.987  1.388    46.5 /  89  18.4   86  .00

          19 19  14 11.93  +03 51.2   0.986  1.391    45.9 /  89  18.4   99  .01

          20 19  14 15.00  +03 52.2   0.986  1.394    45.3 /  88  18.4  111  .03

          21 19  14 18.02  +03 53.5   0.986  1.398    44.6 /  88  18.4  124  .09

          22 19  14 21.00  +03 54.9   0.986  1.401    44.0 /  88  18.4  136  .17

          23 19  14 23.94  +03 56.6   0.986  1.405    43.3 /  88  18.4  147  .26

          24 19  14 26.83  +03 58.4   0.986  1.409    42.7 /  87  18.5  155  .37

          25 19  14 29.68  +04 00.4   0.986  1.412    42.0 /  87  18.5  158  .48

          26 19  14 32.48  +04 02.6   0.987  1.416    41.3 /  87  18.5  154  .59

          27 19  14 35.23  +04 05.0   0.987  1.421    40.6 /  86  18.5  145  .70

          28 19  14 37.94  +04 07.6   0.987  1.425    39.9 /  86  18.5  135  .79

          29 19  14 40.61  +04 10.4   0.988  1.429    39.2 /  86  18.5  124  .87

          30 19  14 43.22  +04 13.3   0.988  1.434    38.6 /  85  18.5  112  .94

          31 19  14 45.79  +04 16.5   0.988  1.439    37.9 /  85  18.6  101  .98

     Feb.  1 19  14 48.31  +04 19.8   0.989  1.443    37.2 /  85  18.6   90 1.00

NAKANO

         **** Don't distribute anyone except personal use only ****

                (C) Copyright 2007 OAA/ComputingSection

write mail from CFAD0::NAKANO on 2007-01-02 03:15:43(JST).

 



戻ります。